TimeEST,TemperatureF,Dew PointF,Humidity,Sea Level PressureIn,VisibilityMPH,Wind Direction,Wind SpeedMPH,Gust SpeedMPH,PrecipitationIn,Events,Conditions,WindDirDegrees,DateUTC
12:56 AM,51.1,50.0,96,30.03,0.5,West,4.6,-,N/A,,Overcast,280,2012-12-08 05:56:00
1:56 AM,52.0,51.1,97,30.04,0.2,Calm,Calm,-,N/A,Fog,Fog,0,2012-12-08 06:56:00
2:56 AM,53.1,51.1,93,30.03,0.5,Calm,Calm,-,N/A,,Overcast,0,2012-12-08 07:56:00
3:56 AM,53.1,51.1,93,30.02,0.5,NW,3.5,-,N/A,,Overcast,320,2012-12-08 08:56:00
4:56 AM,52.0,50.0,93,30.02,0.5,WNW,3.5,-,N/A,,Overcast,300,2012-12-08 09:56:00
5:56 AM,51.1,50.0,96,30.04,0.5,West,3.5,-,N/A,,Overcast,280,2012-12-08 10:56:00
6:56 AM,51.1,50.0,96,30.05,0.2,Calm,Calm,-,N/A,Fog,Fog,0,2012-12-08 11:56:00
7:56 AM,50.0,48.9,96,30.06,0.0,WSW,3.5,-,N/A,Fog,Fog,240,2012-12-08 12:56:00
8:56 AM,48.9,48.0,97,30.08,0.2,Calm,Calm,-,N/A,Fog,Fog,0,2012-12-08 13:56:00
9:37 AM,50.0,48.2,94,30.09,6.0,Calm,Calm,-,N/A,,Mostly Cloudy,0,2012-12-08 14:37:00
9:56 AM,51.1,48.9,92,30.09,8.0,Calm,Calm,-,N/A,,Mostly Cloudy,0,2012-12-08 14:56:00
10:10 AM,53.6,48.2,82,30.09,9.0,WSW,3.5,-,N/A,,Mostly Cloudy,240,2012-12-08 15:10:00
10:56 AM,59.0,50.0,72,30.07,10.0,Calm,Calm,-,N/A,,Mostly Cloudy,0,2012-12-08 15:56:00
11:56 AM,63.0,51.1,65,30.06,10.0,South,3.5,-,N/A,,Mostly Cloudy,180,2012-12-08 16:56:00
12:56 PM,66.9,52.0,59,30.02,10.0,West,3.5,-,N/A,,Mostly Cloudy,260,2012-12-08 17:56:00
1:56 PM,71.1,53.1,53,30.01,10.0,Variable,4.6,-,N/A,,Mostly Cloudy,0,2012-12-08 18:56:00
2:56 PM,72.0,53.1,51,30.00,10.0,SSW,6.9,-,N/A,,Scattered Clouds,210,2012-12-08 19:56:00
3:56 PM,71.1,53.1,53,30.01,10.0,SW,4.6,-,N/A,,Scattered Clouds,220,2012-12-08 20:56:00
4:56 PM,69.1,53.1,57,30.02,10.0,SW,5.8,-,N/A,,Mostly Cloudy,220,2012-12-08 21:56:00
5:56 PM,64.9,53.1,65,30.03,10.0,Calm,Calm,-,N/A,,Mostly Cloudy,0,2012-12-08 22:56:00
6:56 PM,62.1,54.0,75,30.04,10.0,South,3.5,-,N/A,,Mostly Cloudy,190,2012-12-08 23:56:00
7:56 PM,62.1,53.1,72,30.05,10.0,SSW,3.5,-,N/A,,Scattered Clouds,210,2012-12-09 00:56:00
8:56 PM,61.0,52.0,72,30.06,10.0,Calm,Calm,-,N/A,,Clear,0,2012-12-09 01:56:00
9:56 PM,57.9,52.0,81,30.07,10.0,Calm,Calm,-,N/A,,Partly Cloudy,0,2012-12-09 02:56:00
10:56 PM,57.9,52.0,81,30.07,10.0,Calm,Calm,-,N/A,,Mostly Cloudy,0,2012-12-09 03:56:00
11:56 PM,55.0,50.0,83,30.07,10.0,Calm,Calm,-,N/A,,Scattered Clouds,0,2012-12-09 04:56:00